AirNav   Pilot Hours Calculator
 
 856 users online  

MO21 St Joseph Medical Center Heliport
Kansas City, Missouri, USA

GOING TO KANSAS CITY?


FAA INFORMATION EFFECTIVE 08 OCTOBER 2020

Location

FAA Identifier: MO21
Lat/Long: 38-56-10.8000N 094-36-18.4600W
38-56.180000N 094-36.307667W
38.9363333,-94.6051278
(estimated)
Elevation: 900 ft. / 274 m (estimated)
Variation: 05E (1985)
Time zone: UTC -5 (UTC -6 during Standard Time)
Zip code: 64114

Heliport Operations

Heliport use: Private use, MEDICAL.
Activation date: 11/1988
Control tower: no
ARTCC: KANSAS CITY CENTER
FSS: COLUMBIA FLIGHT SERVICE STATION
Attendance: CONTINUOUS
Wind indicator: lighted
Segmented circle: no
Lights: SS-SR

Heliport Communications

UNICOM: 123.05
WX ASOS at OJC (8 nm SW): 119.35 (913-780-6969)
WX ASOS at LXT (11 nm E): 124.175 (816-347-9807)
WX ASOS at MKC (11 nm N): PHONE 816-329-2843
WX ASOS at IXD (15 nm SW): 135.325 (913-780-6987)

Nearby radio navigation aids

VOR radial/distance  VOR name  Freq  Var
MCIr159/21.8KANSAS CITY VORTAC113.2505E
ANXr240/24.2NAPOLEON VORTAC114.0007E

 
NDB name  Hdg/Dist  Freq  Var  ID
HERBB025/12.642004EPK .--. -.-

Heliport Services

Runway Information

Helipad H1

Dimensions: 45 x 45 ft. / 14 x 14 m
Surface: asphalt
Runway edge lights: PERI
Latitude: 38-56.180000N
Longitude: 094-36.307667W
Elevation: 900.0 ft.
Traffic pattern: leftleft

Heliport Ownership and Management from official FAA records

Ownership: Privately-owned
Owner: ST JOSEPH HEALTH CENTER
1000 CARONDELET DR
KANSAS CITY, MO 64114
Phone 816-942-4400
Manager: RYAN SLOAN
ST JOSEPH HEALTH CENTER
1000 CARONDELET DR
Phone (816) 943-4713

Additional Remarks

SEE AIRSPACE LTR DATED 3/3/98.
FOR CD CTC KANSAS CITY APCH AT 816-329-2710.

Instrument Procedures

There are no published instrument procedures at MO21.

Some nearby airports with instrument procedures:

KOJC - Johnson County Executive Airport (8 nm SW)
KLXT - Lee's Summit Municipal Airport (11 nm E)
KMKC - Charles B Wheeler Downtown Airport (11 nm N)
KIXD - New Century AirCenter Airport (15 nm SW)
3GV - East Kansas City Airport (19 nm E)
 
Loc | Ops | Rwys | IFR | FBO | Links
Com | Nav | Svcs | Stats | Notes
Area around MO21 (St Joseph Medical Center Heliport)
 
Road maps at: MapQuest Bing Google
 
Aerial photo
No photo
 
Sectional chart

 
Airport distance calculator
Flying to St Joseph Medical Center Heliport? Find the distance to fly.

From to MO21

Sunrise and sunset
Times for 26-Oct-2020
 Local
(UTC-5)
 Zulu
(UTC)
Morning civil twilight07:1412:14
Sunrise07:4112:41
Sunset18:2323:23
Evening civil twilight18:5123:51

Current date and time
Zulu (UTC)  27-Oct-2020 04:05:55
Local (UTC-5)  26-Oct-2020 23:05:55
 
METAR
KOJC 
8nm SW 
270353Z AUTO 02009KT 10SM FEW012 BKN037 OVC047 M01/M02 A3036 RMK AO2 SNB05E33 SLP293 P0000 T10111022
KMKC 
11nm N 
270354Z AUTO 34004KT 10SM OVC045 M01/M04 A3040 RMK AO2 SLP300 T10061039
KLXT 
11nm E 
270353Z AUTO 36009KT 10SM UP FEW010 BKN035 OVC048 M01/M03 A3037 RMK AO2 UPB23 SLP297 P0000 T10111028
KIXD 
15nm SW 
270353Z AUTO 36010KT 7SM -SN FEW012 OVC036 M02/M04 A3037 RMK AO2 SNB00 SLP294 P0001 T10171039
TAF
KMKC 
11nm N 
262201Z 2622/2718 35009KT 6SM -SN BR BKN015 OVC060 FM270100 01006KT 6SM -FZDZSN BR BKN020 FM271000 02004KT P6SM BKN035
KIXD 
15nm SW 
262200Z 2622/2718 36009KT 6SM -SN BR BKN015 OVC060 FM270100 01007KT 6SM -FZDZSN BR BKN020 FM271000 02005KT P6SM BKN035
NOTAMs
Click for the latest NOTAMs
NOTAMs are issued by the DoD/FAA and will open in a separate window not controlled by AirNav.

 

 
 

Would you like to see your business listed on this page?

 If your business provides an interesting product or service to pilots, flight crews, aircraft, or users of the St Joseph Medical Center Heliport, you should consider listing it here.  To start the listing process, click on the button below
 
Add a business
 

Other Pages about St Joseph Medical Center Heliport

Update a link
 
Copyright © AirNav, LLC. All rights reserved. Privacy Policy  Contact